This demonstration page uses our WeatherBlox Daily Observations layout. Learn more.

Left ArrowRight Arrow

Hourly Observations for May 19, 2019

Temp ( °F °C ) Dew Point ( °F °C ) Humidity (%) Winds ( mph kmh ) Pressure ( in mb ) Visibility ( mi km ) Precip ( " mm )
12:52 am 00:52 Partly Cloudy 62 16.7 58 14.4 86 86 S 12 19 29.62 1003 10 16 0.00 0.00
1:13 am 01:13 Mostly Cloudy 62 16.7 59 15 90 90 S 10 17 29.63 1003 10 16 0.00 0.00
1:52 am 01:52 Cloudy 63 17.2 59 15 87 87 S 12 19 29.64 1004 10 16 0.00 0.00
2:28 am 02:28 Cloudy with Nearby Thunderstorms 63 17.2 59 15 87 87 W 20 31 29.69 1005 3 5 0.00 0.03
2:38 am 02:38 Cloudy with Light Rain 62 16.7 57 13.9 84 84 WSW 14 22 29.69 1005 5 8 0.13 3.30
2:47 am 02:47 Cloudy with Light Rain 63 17 57 14 83 83 WSW 16 26 29.71 1006 8 13 0.14 3.56
2:52 am 02:52 Cloudy with Light Rain 62 16.7 58 14.4 86 86 WSW 13 20 29.69 1005 10 16 0.15 3.81
2:59 am 02:59 Cloudy with Light Rain 61 16.1 58 14.4 90 90 W 7 11 29.69 1005 10 16 0.00 0.03
3:52 am 03:52 Clear 58 14.4 55 12.8 90 90 S 5 7 29.63 1003 10 16 0.01 0.25
4:52 am 04:52 Cloudy 58 14.4 55 12.8 90 90 SSW 10 17 29.67 1005 10 16 0.00 0.00
5:52 am 05:52 Clear 57 13.9 53 11.7 87 87 SSW 9 15 29.68 1005 10 16 0.00 0.00
6:25 am 06:25 Mostly Cloudy 57 13.9 54 12.2 90 90 S 8 13 29.71 1006 10 16 0.00 0.00
6:52 am 06:52 Cloudy 58 14.4 55 12.8 90 90 SW 6 9 29.71 1006 10 16 0.00 0.00
7:52 am 07:52 Partly Cloudy 60 15.6 56 13.3 86 86 SW 10 17 29.73 1007 10 16 0.00 0.00
8:52 am 08:52 Sunny 63 17.2 53 11.7 70 70 W 10 17 29.75 1008 10 16 0.00 0.00
9:52 am 09:52 Mostly Sunny 66 18.9 54 12.2 65 65 W 16 26 29.79 1009 10 16 0.00 0.00
10:17 am 10:17 Cloudy 63 17.2 53 11.7 70 70 W 17 28 29.81 1009 10 16 0.00 0.00
10:52 am 10:52 Cloudy 64 17.8 54 12.2 70 70 W 13 20 29.83 1010 10 16 0.00 0.00
11:22 am 11:22 Mostly Cloudy 66 18.9 55 12.8 68 68 W 14 22 29.83 1010 10 16 0.00 0.00
11:38 am 11:38 Mostly Cloudy 65 18.3 55 12.8 70 70 W 13 20 29.84 1011 10 16 0.00 0.00
11:52 am 11:52 Mostly Cloudy 66 18.9 55 12.8 68 68 W 13 20 29.85 1011 10 16 0.00 0.00
12:16 pm 12:16 Mostly Cloudy 67 19.4 56 13.3 68 68 W 16 26 29.85 1011 10 16 0.00 0.00
12:52 pm 12:52 Cloudy 68 20 55 12.8 63 63 WNW 10 17 29.86 1011 10 16 0.00 0.00
1:52 pm 13:52 Partly Cloudy 70 21.1 55 12.8 59 59 W 13 20 29.87 1012 10 16 0.00 0.00
2:52 pm 14:52 Mostly Sunny 72 22.2 56 13.3 57 57 W 15 24 29.87 1012 10 16 0.00 0.00
3:52 pm 15:52 Mostly Sunny 72 22.2 56 13.3 57 57 W 17 28 29.88 1012 10 16 0.00 0.00
4:52 pm 16:52 Sunny 72 22.2 52 11.1 50 50 W 15 24 29.89 1012 10 16 0.00 0.00
5:52 pm 17:52 Sunny 72 22.2 53 11.7 52 52 W 13 20 29.90 1013 10 16 0.00 0.00
6:52 pm 18:52 Sunny 71 21.7 52 11.1 51 51 WNW 9 15 29.91 1013 10 16 0.00 0.00
7:52 pm 19:52 Sunny 68 20 52 11.1 57 57 WNW 6 9 29.93 1014 10 16 0.00 0.00
8:52 pm 20:52 Clear 64 17.8 52 11.1 65 65 WNW 3 6 29.93 1014 10 16 0.00 0.00
9:52 pm 21:52 Clear 62 16.7 51 10.6 67 67 WNW 3 6 29.95 1014 10 16 0.00 0.00
10:52 pm 22:52 Clear 55 12.8 50 10 83 83 Calm 29.97 1015 10 16 0.00 0.00
11:52 pm 23:52 Clear 54 12.2 50 10 87 87 Calm 29.98 1015 10 16 0.00 0.00

Powered by AerisWeather